Location: *
(28.2600°S, 63.4530°W)
Time: 03:22:55
(UTC+00:00)

Daily predictions for brighter satellites

Satellite Brightness Start Highest point End
(mag) Time Altitude Azimuth Time Altitude Azimuth Time Altitude Azimuth
Centaur D AC-29 4.1 07:35:55 20° ENE 07:35:55 20° ENE 07:37:04 10° E
ATLAS 3B R/B 4.3 08:26:47 24° N 08:26:47 24° N 08:29:34 10° N
MSX 4.3 08:25:42 10° NNE 08:30:17 55° NE 08:30:17 55° NE
Cosmos 2082 Rocket 4.0 08:29:47 19° SSE 08:32:33 27° ESE 08:37:21 10° ENE
USA 215 4.0 08:27:56 10° SSE 08:32:10 40° S 08:32:10 40° S
ATLAS 2A CENTAUR R/B 4.2 08:38:08 36° WNW 08:46:10 70° NNE 08:55:27 10° E
FUSE 4.2 08:52:18 60° NNE 08:52:18 60° NNE 08:57:14 10° E
Feng Yun 1-1 Rocket 4.5 08:46:57 10° NNE 08:52:51 75° ESE 08:55:34 34° S
Meteor 1-24 Rocket 3.8 08:49:32 10° N 08:55:00 73° E 09:00:43 10° SSE
CZ-2C R/B 3.8 08:53:00 10° N 08:55:02 25° N 08:55:02 25° N
Cosmos 1484 Rocket 4.3 08:57:05 10° NE 09:00:27 33° ESE 09:01:32 28° SE
CENTAUR R/B 2.0 09:01:22 74° SW 09:01:54 88° WNW 09:07:19 10° NNE
Cosmos 2266 Rocket 4.4 08:56:52 10° S 09:03:13 66° E 09:09:35 10° NNE
Cosmos 1238 Rocket 3.4 09:01:53 10° N 09:07:18 76° E 09:11:46 10° S
Cosmos 1346 Rocket 3.2 09:15:39 52° N 09:15:39 52° N 09:18:40 10° N
Cosmos 1833 Rocket 2.7 09:12:05 29° SSW 09:15:05 81° ESE 09:20:43 10° NNE
Cosmos 1340 4.2 09:14:36 10° SSE 09:18:03 35° E 09:21:33 10° NNE
Atlas Centaur 2 1.1 09:21:08 65° SE 09:21:08 65° SE 09:24:23 10° ESE
GEOS 3 Rocket 4.5 09:17:59 10° NE 09:22:46 45° SE 09:26:48 14° SSW
Gbstr 26 Del rocket 4.2 09:18:02 10° NNW 09:23:34 66° NE 09:30:29 10° SE
Cosmos 2369 Rocket 3.4 09:20:56 10° N 09:26:13 42° ENE 09:31:35 10° SE
GPS 2-04 Rocket1 3.2 09:27:48 47° NW 09:28:14 49° NNW 09:32:18 10° NE
OAO 1 Rocket 4.4 09:29:19 40° W 09:31:19 76° SSW 09:36:44 10° ESE
Cosmos 1992 Rocket 4.3 09:26:34 10° S 09:31:48 66° ESE 09:36:57 10° NNE
Cosmos 1726 3.5 09:28:58 10° SSE 09:32:31 39° E 09:36:02 10° NNE
ATLAS CENTAUR R/B 3.8 09:30:32 10° N 09:34:40 29° ENE 09:38:42 10° SE
Delta 168 4.2 09:33:15 19° NNW 09:34:42 24° NNE 09:37:21 10° ENE
Stardust Del rocket 4.3 09:40:33 23° NNW 09:41:48 32° N 09:46:03 10° ENE
USA 161 1.6 09:39:37 10° SSE 09:42:20 70° E 09:45:13 10° N
IUS-13 SRM-1 4.0 09:39:39 21° W 09:49:23 63° NNW 09:53:12 10° ENE
Lacrosse 5 rocket 2.4 09:46:52 10° NNW 09:51:13 50° ENE 09:55:23 10° SE
ARGOS Delta rocket 4.3 09:46:21 10° S 09:51:26 44° WSW 09:56:13 10° NNW
Cosmos 1674 3.7 09:49:57 10° NW 09:57:32 - SSW 09:52:24 25° WNW
SL-27 R/B 3.2 09:54:45 29° WSW 09:55:27 32° W 09:58:41 10° NNW
Cosmos 1943 Rocket 2.7 09:50:46 10° N 09:56:17 62° ENE 10:01:48 10° SSE
Cosmos 1867 3.5 09:52:31 10° NNW 09:57:53 70° WSW 10:03:17 10° SSE
Cosmos 1553 Rocket 4.2 09:51:47 10° N 09:58:07 76° E 10:04:26 10° S
Okean-O 3.7 09:55:57 10° NNW 09:59:33 24° W 10:01:03 20° WSW
Cosmos 1842 Rocket 4.3 09:55:29 10° S 09:59:47 54° E 10:04:02 10° NNE
Iridium 4 Rocket 4.0 09:54:53 10° N 10:00:28 78° E 10:06:25 10° S
Lacrosse 4 Rocket 1.3 09:56:33 10° NNW 10:00:36 61° WSW 10:04:38 10° SSE
Meteor 1-21 Rocket 4.3 09:57:03 10° N 10:02:50 84° W 10:08:48 10° S
Meteosat 1 Rocket2 3.8 10:00:09 16° W 10:06:13 90° SE 10:11:06 10° E
SL-14 R/B 3.1 10:04:35 10° N 10:08:27 72° W 10:12:21 10° S
COSMOS 2487 4.2 10:06:14 10° S 10:09:29 33° ESE 10:12:42 10° NE
Cosmos 44 3.4 10:05:32 10° NNW 10:10:37 82° ENE 10:15:26 10° SSE
H-2A ROCKET BODY 2.9 09:52:16 10° WNW 10:10:38 79° N 10:14:39 10° E
Cosmos 1908 3.8 10:08:07 10° SSW 10:11:38 34° W 10:15:07 10° NNW
SMAP 3.2 10:10:30 10° N 10:15:03 54° W 10:19:41 10° SSW
CORIOLIS 4.1 10:09:57 10° N 10:15:18 74° WNW 10:20:42 10° SSW
Cosmos 2082 Rocket 3.0 10:11:41 10° SW 10:16:30 30° WNW 10:21:23 10° NNW
Ariane Rocket 3.4 10:13:11 10° NNE 10:18:13 67° ESE 10:23:18 10° S
Iridium 18 3.4 10:16:50 10° N 10:18:40 62° E 10:20:41 10° S
FENGYUN 3A 3.7 10:13:38 10° NNE 10:19:00 86° ESE 10:24:25 10° S
Cosmos 1140 Rocket 3.5 10:13:50 10° NNW 10:19:03 72° WSW 10:24:21 10° S
Cosmos 407 Rocket 4.1 10:14:19 10° NW 10:19:05 34° WSW 10:23:52 10° S
Meteor 2-10 4.0 10:15:59 10° SSW 10:20:59 57° W 10:26:01 10° N
DELTA 2 R/B(2) 2.8 10:21:30 17° WSW 10:22:36 90° SSE 10:24:39 10° ENE
DELTA 2 R/B(2) 4.4 10:23:09 14° WSW 10:24:57 44° NNW 10:28:16 10° NE
ALOS 2.3 10:21:28 10° N 10:26:07 71° W 10:30:50 10° SSW
Cosmos 1954 Rocket 4.1 10:22:21 10° NNW 10:27:36 61° WSW 10:32:53 10° S
Cosmos 371 Rocket 3.8 10:24:52 10° S 10:29:42 65° ESE 10:34:27 10° NNE
CZ-4 R/B 1.4 10:25:41 10° N 10:29:51 70° WNW 10:34:01 10° SSW
COSMO-SKYMED 1 2.6 10:26:59 10° S 10:31:19 57° WSW 10:35:35 10° NNW
GPS 2-05 Rocket1 4.4 10:29:02 10° SW 10:31:45 22° S 10:34:28 10° ESE
Lacrosse 5 3.8 10:32:27 10° S 10:36:39 24° SE 10:40:48 10° E
Cosmos 44 Rocket 3.5 10:31:44 10° NNW 10:36:45 79° ENE 10:41:38 10° SSE
Cosmos 1328 3.8 10:35:22 10° N 10:39:22 75° W 10:43:26 10° S
Delta 7925 Rocket 4.3 10:36:02 10° NW 10:40:26 42° NNE 10:45:07 10° E
FALCON 9 R/B 4.1 10:17:35 10° W 10:44:26 67° S 10:50:52 10° E
